Year,Month,Day,Hour,Minute,Value (Times are PST for temperature in C)
2006,09,01,00,00,10.90
2006,09,01,00,01,10.90
2006,09,01,00,02,10.90
2006,09,01,00,03,10.90
2006,09,01,00,04,10.90
2006,09,01,00,05,10.90
2006,09,01,00,06,10.90
2006,09,01,00,07,10.90
2006,09,01,00,08,10.90
2006,09,01,00,09,10.90
2006,09,01,00,10,10.90
2006,09,01,00,11,10.90
2006,09,01,00,12,10.80
2006,09,01,00,13,10.80
2006,09,01,00,14,10.80
2006,09,01,00,15,10.80
2006,09,01,00,16,10.80
2006,09,01,00,17,10.80
2006,09,01,00,18,10.70
2006,09,01,00,19,10.70
2006,09,01,00,20,10.70
2006,09,01,00,21,10.70
2006,09,01,00,22,10.70
2006,09,01,00,23,10.60
2006,09,01,00,24,10.60
2006,09,01,00,25,10.60
2006,09,01,00,26,10.60
2006,09,01,00,27,10.60
2006,09,01,00,28,10.60
2006,09,01,00,29,10.60
2006,09,01,00,30,10.60
2006,09,01,00,31,10.60
2006,09,01,00,32,10.60
2006,09,01,00,33,10.60
2006,09,01,00,34,10.60
2006,09,01,00,35,10.60
2006,09,01,00,36,10.60
2006,09,01,00,37,10.60
2006,09,01,00,38,10.60
2006,09,01,00,39,10.50
2006,09,01,00,40,10.40
2006,09,01,00,41,10.40
2006,09,01,00,42,10.40
2006,09,01,00,43,10.40
2006,09,01,00,44,10.40
2006,09,01,00,45,10.40
2006,09,01,00,46,10.40
2006,09,01,00,47,10.40
2006,09,01,00,48,10.40
2006,09,01,00,49,10.40
2006,09,01,00,50,10.40
2006,09,01,00,51,10.40
2006,09,01,00,52,10.30
2006,09,01,00,53,10.30
2006,09,01,00,54,10.30
2006,09,01,00,55,10.30
2006,09,01,00,56,10.30
2006,09,01,00,57,10.30
2006,09,01,00,58,10.30
2006,09,01,00,59,10.30
2006,09,01,01,00,10.30
2006,09,01,01,01,10.30
2006,09,01,01,02,10.30
2006,09,01,01,03,10.20
2006,09,01,01,04,10.20
2006,09,01,01,05,10.20
2006,09,01,01,06,10.20
2006,09,01,01,07,10.20
2006,09,01,01,08,10.20
2006,09,01,01,09,10.20
2006,09,01,01,10,10.20
2006,09,01,01,11,10.20
2006,09,01,01,12,10.20
2006,09,01,01,13,10.20
2006,09,01,01,14,10.20
2006,09,01,01,15,10.20
2006,09,01,01,16,10.10
2006,09,01,01,17,10.10
2006,09,01,01,18,10.10
2006,09,01,01,19,10.10
2006,09,01,01,20,10.10
2006,09,01,01,21,10.10
2006,09,01,01,22,10.10
2006,09,01,01,23,10.10
2006,09,01,01,24,10.10
2006,09,01,01,25,10.10
2006,09,01,01,26,10.10
2006,09,01,01,27,10.10
2006,09,01,01,28,10.10
2006,09,01,01,29,10.10
2006,09,01,01,30,10.10
2006,09,01,01,31,10.10
2006,09,01,01,32,10.10
2006,09,01,01,33,10.00
2006,09,01,01,34,9.90
2006,09,01,01,35,9.90
2006,09,01,01,36,9.90
2006,09,01,01,37,9.90
2006,09,01,01,38,9.90
2006,09,01,01,39,9.90
2006,09,01,01,40,9.90
2006,09,01,01,41,9.90
2006,09,01,01,42,9.90
2006,09,01,01,43,9.90
2006,09,01,01,44,9.90
2006,09,01,01,45,9.90
2006,09,01,01,46,9.90
2006,09,01,01,47,9.90
2006,09,01,01,48,9.90
2006,09,01,01,49,9.90
2006,09,01,01,50,9.90
2006,09,01,01,51,9.90
2006,09,01,01,52,9.90
2006,09,01,01,53,9.90
2006,09,01,01,54,9.90
2006,09,01,01,55,9.80
2006,09,01,01,56,9.80
2006,09,01,01,57,9.80
2006,09,01,01,58,9.80
2006,09,01,01,59,9.80
2006,09,01,02,00,9.70
2006,09,01,02,01,9.70
2006,09,01,02,02,9.70
2006,09,01,02,03,9.70
2006,09,01,02,04,9.80
2006,09,01,02,05,9.80
2006,09,01,02,06,9.80
2006,09,01,02,07,9.80
2006,09,01,02,08,9.70
2006,09,01,02,09,9.70
2006,09,01,02,10,9.70
2006,09,01,02,11,9.70
2006,09,01,02,12,9.70
2006,09,01,02,13,9.70
2006,09,01,02,14,9.70
2006,09,01,02,15,9.70
2006,09,01,02,16,9.70
2006,09,01,02,17,9.70
2006,09,01,02,18,9.70
2006,09,01,02,19,9.70
2006,09,01,02,20,9.70
2006,09,01,02,21,9.70
2006,09,01,02,22,9.70
2006,09,01,02,23,9.70
2006,09,01,02,24,9.70
2006,09,01,02,25,9.70
2006,09,01,02,26,9.70
2006,09,01,02,27,9.70
2006,09,01,02,28,9.70
2006,09,01,02,29,9.70
2006,09,01,02,30,9.70
2006,09,01,02,31,9.70
2006,09,01,02,32,9.70
2006,09,01,02,33,9.70
2006,09,01,02,34,9.70
2006,09,01,02,35,9.70
2006,09,01,02,36,9.70
2006,09,01,02,37,9.70
2006,09,01,02,38,9.70
2006,09,01,02,39,9.70
2006,09,01,02,40,9.60
2006,09,01,02,41,9.60
2006,09,01,02,42,9.60
2006,09,01,02,43,9.60
2006,09,01,02,44,9.60
2006,09,01,02,45,9.60
2006,09,01,02,46,9.60
2006,09,01,02,47,9.60
2006,09,01,02,48,9.60
2006,09,01,02,49,9.60
2006,09,01,02,50,9.60
2006,09,01,02,51,9.60
2006,09,01,02,52,9.50
2006,09,01,02,53,9.50
2006,09,01,02,54,9.50
2006,09,01,02,55,9.50
2006,09,01,02,56,9.50
2006,09,01,02,57,9.50
2006,09,01,02,58,9.50
2006,09,01,02,59,9.50
2006,09,01,03,00,9.50
2006,09,01,03,01,9.50
2006,09,01,03,02,9.50
2006,09,01,03,03,9.50
2006,09,01,03,04,9.50
2006,09,01,03,05,9.50
2006,09,01,03,06,9.50
2006,09,01,03,07,9.50
2006,09,01,03,08,9.50
2006,09,01,03,09,9.50
2006,09,01,03,10,9.50
2006,09,01,03,11,9.50
2006,09,01,03,12,9.50
2006,09,01,03,13,9.50
2006,09,01,03,14,9.40
2006,09,01,03,15,9.40
2006,09,01,03,16,9.40
2006,09,01,03,17,9.40
2006,09,01,03,18,9.40
2006,09,01,03,19,9.40
2006,09,01,03,20,9.40
2006,09,01,03,21,9.40
2006,09,01,03,22,9.40
2006,09,01,03,23,9.40
2006,09,01,03,24,9.30
2006,09,01,03,25,9.30
2006,09,01,03,26,9.30
2006,09,01,03,27,9.30
2006,09,01,03,28,9.30
2006,09,01,03,29,9.30
2006,09,01,03,30,9.30
2006,09,01,03,31,9.30
2006,09,01,03,32,9.30
2006,09,01,03,33,9.40
2006,09,01,03,34,9.40
2006,09,01,03,35,9.40
2006,09,01,03,36,9.40
2006,09,01,03,37,9.40
2006,09,01,03,38,9.40
2006,09,01,03,39,9.40
2006,09,01,03,40,9.40
2006,09,01,03,41,9.40
2006,09,01,03,42,9.40
2006,09,01,03,43,9.30
2006,09,01,03,44,9.30
2006,09,01,03,45,9.30
2006,09,01,03,46,9.30
2006,09,01,03,47,9.30
2006,09,01,03,48,9.30
2006,09,01,03,49,9.30
2006,09,01,03,50,9.30
2006,09,01,03,51,9.30
2006,09,01,03,52,9.30
2006,09,01,03,53,9.30
2006,09,01,03,54,9.30
2006,09,01,03,55,9.30
2006,09,01,03,56,9.30
2006,09,01,03,57,9.30
2006,09,01,03,58,9.30
2006,09,01,03,59,9.30
2006,09,01,04,00,9.40
2006,09,01,04,01,9.40
2006,09,01,04,02,9.40
2006,09,01,04,03,9.40
2006,09,01,04,04,9.40
2006,09,01,04,05,9.40
2006,09,01,04,06,9.40
2006,09,01,04,07,9.40
2006,09,01,04,08,9.40
2006,09,01,04,09,9.40
2006,09,01,04,10,9.40
2006,09,01,04,11,9.40
2006,09,01,04,12,9.40
2006,09,01,04,13,9.40
2006,09,01,04,14,9.40
2006,09,01,04,15,9.40
2006,09,01,04,16,9.40
2006,09,01,04,17,9.40
2006,09,01,04,18,9.40
2006,09,01,04,19,9.40
2006,09,01,04,20,9.40
2006,09,01,04,21,9.40
2006,09,01,04,22,9.40
2006,09,01,04,23,9.40
2006,09,01,04,24,9.40
2006,09,01,04,25,9.40
2006,09,01,04,26,9.40
2006,09,01,04,27,9.40
2006,09,01,04,28,9.40
2006,09,01,04,29,9.40
2006,09,01,04,30,9.30
2006,09,01,04,31,9.30
2006,09,01,04,32,9.30
2006,09,01,04,33,9.30
2006,09,01,04,34,9.30
2006,09,01,04,35,9.30
2006,09,01,04,36,9.30
2006,09,01,04,37,9.30
2006,09,01,04,38,9.30
2006,09,01,04,39,9.30
2006,09,01,04,40,9.40
2006,09,01,04,41,9.40
2006,09,01,04,42,9.40
2006,09,01,04,43,9.50
2006,09,01,04,44,9.50
2006,09,01,04,45,9.50
2006,09,01,04,46,9.60
2006,09,01,04,47,9.60
2006,09,01,04,48,9.60
2006,09,01,04,49,9.60
2006,09,01,04,50,9.70
2006,09,01,04,51,9.70
2006,09,01,04,52,9.70
2006,09,01,04,53,9.70
2006,09,01,04,54,9.70
2006,09,01,04,55,9.70
2006,09,01,04,56,9.70
2006,09,01,04,57,9.70
2006,09,01,04,58,9.70
2006,09,01,04,59,9.70
2006,09,01,05,00,9.70
2006,09,01,05,01,9.70
2006,09,01,05,02,9.80
2006,09,01,05,03,9.90
2006,09,01,05,04,9.90
2006,09,01,05,05,9.90
2006,09,01,05,06,10.10
2006,09,01,05,07,10.10
2006,09,01,05,08,10.20
2006,09,01,05,09,10.20
2006,09,01,05,10,10.30
2006,09,01,05,11,10.40
2006,09,01,05,12,10.60
2006,09,01,05,13,10.60
2006,09,01,05,14,10.80
2006,09,01,05,15,10.90
2006,09,01,05,16,11.10
2006,09,01,05,17,11.20
2006,09,01,05,18,11.30
2006,09,01,05,19,11.40
2006,09,01,05,20,11.50
2006,09,01,05,21,11.60
2006,09,01,05,22,11.70
2006,09,01,05,23,11.70
2006,09,01,05,24,11.80
2006,09,01,05,25,11.80
2006,09,01,05,26,11.80
2006,09,01,05,27,11.80
2006,09,01,05,28,11.90
2006,09,01,05,29,11.90
2006,09,01,05,30,11.90
2006,09,01,05,31,12.00
2006,09,01,05,32,12.00
2006,09,01,05,33,12.00
2006,09,01,05,34,12.00
2006,09,01,05,35,12.10
2006,09,01,05,36,12.10
2006,09,01,05,37,12.10
2006,09,01,05,38,12.10
2006,09,01,05,39,12.10
2006,09,01,05,40,12.20
2006,09,01,05,41,12.20
2006,09,01,05,42,12.20
2006,09,01,05,43,12.20
2006,09,01,05,44,12.20
2006,09,01,05,45,12.20
2006,09,01,05,46,12.20
2006,09,01,05,47,12.20
2006,09,01,05,48,12.20
2006,09,01,05,49,12.20
2006,09,01,05,50,12.30
2006,09,01,05,51,12.30
2006,09,01,05,52,12.30
2006,09,01,05,53,12.40
2006,09,01,05,54,12.40
2006,09,01,05,55,12.50
2006,09,01,05,56,12.50
2006,09,01,05,57,12.60
2006,09,01,05,58,12.70
2006,09,01,05,59,12.70
2006,09,01,06,00,12.80
2006,09,01,06,01,12.80
2006,09,01,06,02,12.80
2006,09,01,06,03,12.80
2006,09,01,06,04,12.80
2006,09,01,06,05,12.90
2006,09,01,06,06,13.00
2006,09,01,06,07,13.00
2006,09,01,06,08,13.10
2006,09,01,06,09,13.10
2006,09,01,06,10,13.10
2006,09,01,06,11,13.20
2006,09,01,06,12,13.20
2006,09,01,06,13,13.20
2006,09,01,06,14,13.20
2006,09,01,06,15,13.20
2006,09,01,06,16,13.20
2006,09,01,06,17,13.20
2006,09,01,06,18,13.20
2006,09,01,06,19,13.20
2006,09,01,06,20,13.20
2006,09,01,06,21,13.20
2006,09,01,06,22,13.20
2006,09,01,06,23,13.20
2006,09,01,06,24,13.20
2006,09,01,06,25,13.20
2006,09,01,06,26,13.20
2006,09,01,06,27,13.20
2006,09,01,06,28,13.20
2006,09,01,06,29,13.20
2006,09,01,06,30,13.30
2006,09,01,06,31,13.30
2006,09,01,06,32,13.30
2006,09,01,06,33,13.30
2006,09,01,06,34,13.30
2006,09,01,06,35,13.30
2006,09,01,06,36,13.30
2006,09,01,06,37,13.30
2006,09,01,06,38,13.30
2006,09,01,06,39,13.30
2006,09,01,06,40,13.30
2006,09,01,06,41,13.30
2006,09,01,06,42,13.30
2006,09,01,06,43,13.30
2006,09,01,06,44,13.30
2006,09,01,06,45,13.30
2006,09,01,06,46,13.30
2006,09,01,06,47,13.30
2006,09,01,06,48,13.30
2006,09,01,06,49,13.30
2006,09,01,06,50,13.30
2006,09,01,06,51,13.30
2006,09,01,06,52,13.30
2006,09,01,06,53,13.30
2006,09,01,06,54,13.40
2006,09,01,06,55,13.40
2006,09,01,06,56,13.40
2006,09,01,06,57,13.40
2006,09,01,06,58,13.40
2006,09,01,06,59,13.40
2006,09,01,07,00,13.40
2006,09,01,07,01,13.40
2006,09,01,07,02,13.40
2006,09,01,07,03,13.40
2006,09,01,07,04,13.30
2006,09,01,07,05,13.30
2006,09,01,07,06,13.30
2006,09,01,07,07,13.30
2006,09,01,07,08,13.30
2006,09,01,07,09,13.30
2006,09,01,07,10,13.30
2006,09,01,07,11,13.30
2006,09,01,07,12,13.30
2006,09,01,07,13,13.40
2006,09,01,07,14,13.40
2006,09,01,07,15,13.40
2006,09,01,07,16,13.50
2006,09,01,07,17,13.50
2006,09,01,07,18,13.50
2006,09,01,07,19,13.50
2006,09,01,07,20,13.60
2006,09,01,07,21,13.60
2006,09,01,07,22,13.60
2006,09,01,07,23,13.60
2006,09,01,07,24,13.60
2006,09,01,07,25,13.70
2006,09,01,07,26,13.70
2006,09,01,07,27,13.70
2006,09,01,07,28,13.70
2006,09,01,07,29,13.70
2006,09,01,07,30,13.70
2006,09,01,07,31,13.80
2006,09,01,07,32,13.80
2006,09,01,07,33,13.80
2006,09,01,07,34,13.90
2006,09,01,07,35,13.90
2006,09,01,07,36,13.90
2006,09,01,07,37,13.90
2006,09,01,07,38,14.00
2006,09,01,07,39,14.00
2006,09,01,07,40,14.00
2006,09,01,07,41,14.10
2006,09,01,07,42,14.10
2006,09,01,07,43,14.20
2006,09,01,07,44,14.20
2006,09,01,07,45,14.20
2006,09,01,07,46,14.20
2006,09,01,07,47,14.20
2006,09,01,07,48,14.20
2006,09,01,07,49,14.20
2006,09,01,07,50,14.20
2006,09,01,07,51,14.20
2006,09,01,07,52,14.20
2006,09,01,07,53,14.30
2006,09,01,07,54,14.30
2006,09,01,07,55,14.30
2006,09,01,07,56,14.30
2006,09,01,07,57,14.30
2006,09,01,07,58,14.30
2006,09,01,07,59,14.40
2006,09,01,08,00,14.40
2006,09,01,08,01,14.40
2006,09,01,08,02,14.40
2006,09,01,08,03,14.50
2006,09,01,08,04,14.50
2006,09,01,08,05,14.50
2006,09,01,08,06,14.50
2006,09,01,08,07,14.60
2006,09,01,08,08,14.60
2006,09,01,08,09,14.60
2006,09,01,08,10,14.60
2006,09,01,08,11,14.70
2006,09,01,08,12,14.70
2006,09,01,08,13,14.70
2006,09,01,08,14,14.80
2006,09,01,08,15,14.80
2006,09,01,08,16,14.80
2006,09,01,08,17,14.80
2006,09,01,08,18,14.90
2006,09,01,08,19,14.90
2006,09,01,08,20,14.90
2006,09,01,08,21,14.90
2006,09,01,08,22,15.00
2006,09,01,08,23,15.00
2006,09,01,08,24,15.00
2006,09,01,08,25,15.10
2006,09,01,08,26,15.10
2006,09,01,08,27,15.10
2006,09,01,08,28,15.20
2006,09,01,08,29,15.20
2006,09,01,08,30,15.30
2006,09,01,08,31,15.30
2006,09,01,08,32,15.30
2006,09,01,08,33,15.40
2006,09,01,08,34,15.40
2006,09,01,08,35,15.50
2006,09,01,08,36,15.50
2006,09,01,08,37,15.50
2006,09,01,08,38,15.50
2006,09,01,08,39,15.60
2006,09,01,08,40,15.60
2006,09,01,08,41,15.60
2006,09,01,08,42,15.60
2006,09,01,08,43,15.70
2006,09,01,08,44,15.70
2006,09,01,08,45,15.80
2006,09,01,08,46,15.80
2006,09,01,08,47,15.80
2006,09,01,08,48,15.80
2006,09,01,08,49,15.80
2006,09,01,08,50,15.80
2006,09,01,08,51,15.80
2006,09,01,08,52,15.80
2006,09,01,08,53,15.80
2006,09,01,08,54,15.90
2006,09,01,08,55,15.90
2006,09,01,08,56,15.90
2006,09,01,08,57,15.90
2006,09,01,08,58,15.90
2006,09,01,08,59,16.10
2006,09,01,09,00,16.10
2006,09,01,09,01,16.10
2006,09,01,09,02,16.10
2006,09,01,09,03,16.10
2006,09,01,09,04,16.10
2006,09,01,09,05,16.10
2006,09,01,09,06,16.10
2006,09,01,09,07,16.10
2006,09,01,09,08,16.20
2006,09,01,09,09,16.20
2006,09,01,09,10,16.20
2006,09,01,09,11,16.20
2006,09,01,09,12,16.20
2006,09,01,09,13,16.20
2006,09,01,09,14,16.20
2006,09,01,09,15,16.30
2006,09,01,09,16,16.30
2006,09,01,09,17,16.30
2006,09,01,09,18,16.40
2006,09,01,09,19,16.40
2006,09,01,09,20,16.40
2006,09,01,09,21,16.40
2006,09,01,09,22,16.40
2006,09,01,09,23,16.40
2006,09,01,09,24,16.40
2006,09,01,09,25,16.40
2006,09,01,09,26,16.40
2006,09,01,09,27,16.50
2006,09,01,09,28,16.60
2006,09,01,09,29,16.60
2006,09,01,09,30,16.60
2006,09,01,09,31,16.70
2006,09,01,09,32,16.70
2006,09,01,09,33,16.70
2006,09,01,09,34,16.70
2006,09,01,09,35,16.70
2006,09,01,09,36,16.70
2006,09,01,09,37,16.70
2006,09,01,09,38,16.80
2006,09,01,09,39,16.80
2006,09,01,09,40,16.80
2006,09,01,09,41,16.80
2006,09,01,09,42,16.80
2006,09,01,09,43,16.90
2006,09,01,09,44,16.90
2006,09,01,09,45,16.90
2006,09,01,09,46,17.00
2006,09,01,09,47,17.00
2006,09,01,09,48,17.00
2006,09,01,09,49,17.00
2006,09,01,09,50,17.00
2006,09,01,09,51,17.00
2006,09,01,09,52,17.00
2006,09,01,09,53,17.00
2006,09,01,09,54,17.00
2006,09,01,09,55,17.10
2006,09,01,09,56,17.10
2006,09,01,09,57,17.10
2006,09,01,09,58,17.20
2006,09,01,09,59,17.20
2006,09,01,10,00,17.30
2006,09,01,10,01,17.30
2006,09,01,10,02,17.30
2006,09,01,10,03,17.40
2006,09,01,10,04,17.40
2006,09,01,10,05,17.40
2006,09,01,10,06,17.40
2006,09,01,10,07,17.40
2006,09,01,10,08,17.40
2006,09,01,10,09,17.40
2006,09,01,10,10,17.40
2006,09,01,10,11,17.50
2006,09,01,10,12,17.50
2006,09,01,10,13,17.50
2006,09,01,10,14,17.50
2006,09,01,10,15,17.60
2006,09,01,10,16,17.60
2006,09,01,10,17,17.70
2006,09,01,10,18,17.70
2006,09,01,10,19,17.70
2006,09,01,10,20,17.70
2006,09,01,10,21,17.70
2006,09,01,10,22,17.70
2006,09,01,10,23,17.70
2006,09,01,10,24,17.70
2006,09,01,10,25,17.70
2006,09,01,10,26,17.70
2006,09,01,10,27,17.70
2006,09,01,10,28,17.60
2006,09,01,10,29,17.60
2006,09,01,10,30,17.60
2006,09,01,10,31,17.70
2006,09,01,10,32,17.70
2006,09,01,10,33,17.80
2006,09,01,10,34,17.80
2006,09,01,10,35,17.90
2006,09,01,10,36,17.90
2006,09,01,10,37,18.00
2006,09,01,10,38,18.10
2006,09,01,10,39,18.10
2006,09,01,10,40,18.10
2006,09,01,10,41,18.10
2006,09,01,10,42,18.10
2006,09,01,10,43,18.10
2006,09,01,10,44,18.20
2006,09,01,10,45,18.10
2006,09,01,10,46,18.20
2006,09,01,10,47,18.20
2006,09,01,10,48,18.20
2006,09,01,10,49,18.20
2006,09,01,10,50,18.30
2006,09,01,10,51,18.30
2006,09,01,10,52,18.40
2006,09,01,10,53,18.40
2006,09,01,10,54,18.40
2006,09,01,10,55,18.50
2006,09,01,10,56,18.50
2006,09,01,10,57,18.50
2006,09,01,10,58,18.50
2006,09,01,10,59,18.60
2006,09,01,11,00,18.70
2006,09,01,11,01,18.70
2006,09,01,11,02,18.80
2006,09,01,11,03,18.80
2006,09,01,11,04,18.80
2006,09,01,11,05,18.80
2006,09,01,11,06,18.90
2006,09,01,11,07,18.90
2006,09,01,11,08,18.90
2006,09,01,11,09,18.90
2006,09,01,11,10,18.90
2006,09,01,11,11,18.90
2006,09,01,11,12,19.00
2006,09,01,11,13,19.10
2006,09,01,11,14,19.10
2006,09,01,11,15,19.10
2006,09,01,11,16,19.30
2006,09,01,11,17,19.30
2006,09,01,11,18,19.40
2006,09,01,11,19,19.40
2006,09,01,11,20,19.40
2006,09,01,11,21,19.40
2006,09,01,11,22,19.40
2006,09,01,11,23,19.30
2006,09,01,11,24,19.30
2006,09,01,11,25,19.30
2006,09,01,11,26,19.30
2006,09,01,11,27,19.30
2006,09,01,11,28,19.40
2006,09,01,11,29,19.30
2006,09,01,11,30,19.30
2006,09,01,11,31,19.30
2006,09,01,11,32,19.40
2006,09,01,11,33,19.50
2006,09,01,11,34,19.50
2006,09,01,11,35,19.60
2006,09,01,11,36,19.70
2006,09,01,11,37,19.60
2006,09,01,11,38,19.60
2006,09,01,11,39,19.60
2006,09,01,11,40,19.60
2006,09,01,11,41,19.60
2006,09,01,11,42,19.60
2006,09,01,11,43,19.70
2006,09,01,11,44,19.70
2006,09,01,11,45,19.70
2006,09,01,11,46,19.60
2006,09,01,11,47,19.60
2006,09,01,11,48,19.60
2006,09,01,11,49,19.60
2006,09,01,11,50,19.70
2006,09,01,11,51,19.70
2006,09,01,11,52,19.70
2006,09,01,11,53,19.70
2006,09,01,11,54,19.70
2006,09,01,11,55,19.70
2006,09,01,11,56,19.70
2006,09,01,11,57,19.70
2006,09,01,11,58,19.70
2006,09,01,11,59,19.70
2006,09,01,12,00,19.70
2006,09,01,12,01,19.80
2006,09,01,12,02,19.90
2006,09,01,12,03,19.90
2006,09,01,12,04,19.90
2006,09,01,12,05,19.90
2006,09,01,12,06,19.80
2006,09,01,12,07,19.80
2006,09,01,12,08,19.80
2006,09,01,12,09,19.80
2006,09,01,12,10,19.80
2006,09,01,12,11,19.90
2006,09,01,12,12,19.90
2006,09,01,12,13,19.90
2006,09,01,12,14,19.90
2006,09,01,12,15,19.90
2006,09,01,12,16,19.80
2006,09,01,12,17,19.70
2006,09,01,12,18,19.70
2006,09,01,12,19,19.70
2006,09,01,12,20,19.80
2006,09,01,12,21,19.80
2006,09,01,12,22,19.90
2006,09,01,12,23,19.90
2006,09,01,12,24,20.00
2006,09,01,12,25,20.10
2006,09,01,12,26,20.20
2006,09,01,12,27,20.20
2006,09,01,12,28,20.20
2006,09,01,12,29,20.30
2006,09,01,12,30,20.40
2006,09,01,12,31,20.40
2006,09,01,12,32,20.40
2006,09,01,12,33,20.40
2006,09,01,12,34,20.40
2006,09,01,12,35,20.40
2006,09,01,12,36,20.40
2006,09,01,12,37,20.30
2006,09,01,12,38,20.30
2006,09,01,12,39,20.30
2006,09,01,12,40,20.30
2006,09,01,12,41,20.30
2006,09,01,12,42,20.40
2006,09,01,12,43,20.50
2006,09,01,12,44,20.50
2006,09,01,12,45,20.70
2006,09,01,12,46,20.70
2006,09,01,12,47,20.70
2006,09,01,12,48,20.70
2006,09,01,12,49,20.60
2006,09,01,12,50,20.50
2006,09,01,12,51,20.50
2006,09,01,12,52,20.40
2006,09,01,12,53,20.30
2006,09,01,12,54,20.40
2006,09,01,12,55,20.40
2006,09,01,12,56,20.40
2006,09,01,12,57,20.40
2006,09,01,12,58,20.40
2006,09,01,12,59,20.50
2006,09,01,13,00,20.50
2006,09,01,13,01,20.60
2006,09,01,13,02,20.70
2006,09,01,13,03,20.70
2006,09,01,13,04,20.60
2006,09,01,13,05,20.70
2006,09,01,13,06,20.80
2006,09,01,13,07,20.80
2006,09,01,13,08,21.00
2006,09,01,13,09,21.00
2006,09,01,13,10,20.90
2006,09,01,13,11,20.80
2006,09,01,13,12,20.70
2006,09,01,13,13,20.70
2006,09,01,13,14,20.70
2006,09,01,13,15,20.70
2006,09,01,13,16,20.70
2006,09,01,13,17,20.80
2006,09,01,13,18,20.70
2006,09,01,13,19,20.70
2006,09,01,13,20,20.80
2006,09,01,13,21,20.80
2006,09,01,13,22,20.80
2006,09,01,13,23,20.80
2006,09,01,13,24,20.80
2006,09,01,13,25,20.80
2006,09,01,13,26,20.80
2006,09,01,13,27,20.80
2006,09,01,13,28,20.80
2006,09,01,13,29,20.80
2006,09,01,13,30,20.80
2006,09,01,13,31,20.90
2006,09,01,13,32,20.90
2006,09,01,13,33,20.80
2006,09,01,13,34,20.80
2006,09,01,13,35,20.80
2006,09,01,13,36,20.90
2006,09,01,13,37,20.90
2006,09,01,13,38,21.00
2006,09,01,13,39,21.10
2006,09,01,13,40,21.10
2006,09,01,13,41,21.20
2006,09,01,13,42,21.20
2006,09,01,13,43,21.20
2006,09,01,13,44,21.30
2006,09,01,13,45,21.30
2006,09,01,13,46,21.30
2006,09,01,13,47,21.40
2006,09,01,13,48,21.40
2006,09,01,13,49,21.40
2006,09,01,13,50,21.40
2006,09,01,13,51,21.40
2006,09,01,13,52,21.40
2006,09,01,13,53,21.40
2006,09,01,13,54,21.30
2006,09,01,13,55,21.30
2006,09,01,13,56,21.40
2006,09,01,13,57,21.50
2006,09,01,13,58,21.60
2006,09,01,13,59,21.60
2006,09,01,14,00,21.70
2006,09,01,14,01,21.60
2006,09,01,14,02,21.60
2006,09,01,14,03,21.60
2006,09,01,14,04,21.50
2006,09,01,14,05,21.40
2006,09,01,14,06,21.30
2006,09,01,14,07,21.30
2006,09,01,14,08,21.40
2006,09,01,14,09,21.30
2006,09,01,14,10,21.30
2006,09,01,14,11,21.30
2006,09,01,14,12,21.40
2006,09,01,14,13,21.40
2006,09,01,14,14,21.40
2006,09,01,14,15,21.40
2006,09,01,14,16,21.50
2006,09,01,14,17,21.60
2006,09,01,14,18,21.60
2006,09,01,14,19,21.60
2006,09,01,14,20,21.60
2006,09,01,14,21,21.40
2006,09,01,14,22,21.50
2006,09,01,14,23,21.60
2006,09,01,14,24,21.60
2006,09,01,14,25,21.60
2006,09,01,14,26,21.60
2006,09,01,14,27,21.60
2006,09,01,14,28,21.60
2006,09,01,14,29,21.60
2006,09,01,14,30,21.70
2006,09,01,14,31,21.70
2006,09,01,14,32,21.70
2006,09,01,14,33,21.70
2006,09,01,14,34,21.70
2006,09,01,14,35,21.70
2006,09,01,14,36,21.70
2006,09,01,14,37,21.70
2006,09,01,14,38,21.70
2006,09,01,14,39,21.80
2006,09,01,14,40,21.90
2006,09,01,14,41,22.00
2006,09,01,14,42,22.00
2006,09,01,14,43,22.00
2006,09,01,14,44,22.00
2006,09,01,14,45,22.10
2006,09,01,14,46,22.10
2006,09,01,14,47,22.10
2006,09,01,14,48,22.20
2006,09,01,14,49,22.30
2006,09,01,14,50,22.30
2006,09,01,14,51,22.50
2006,09,01,14,52,22.60
2006,09,01,14,53,22.60
2006,09,01,14,54,22.70
2006,09,01,14,55,22.70
2006,09,01,14,56,22.80
2006,09,01,14,57,22.80
2006,09,01,14,58,22.80
2006,09,01,14,59,22.80
2006,09,01,15,00,22.80
2006,09,01,15,01,22.80
2006,09,01,15,02,22.80
2006,09,01,15,03,22.80
2006,09,01,15,04,22.80
2006,09,01,15,05,22.80
2006,09,01,15,06,22.80
2006,09,01,15,07,22.70
2006,09,01,15,08,22.60
2006,09,01,15,09,22.60
2006,09,01,15,10,22.60
2006,09,01,15,11,22.50
2006,09,01,15,12,22.60
2006,09,01,15,13,22.60
2006,09,01,15,14,22.60
2006,09,01,15,15,22.60
2006,09,01,15,16,22.70
2006,09,01,15,17,22.80
2006,09,01,15,18,22.80
2006,09,01,15,19,22.80
2006,09,01,15,20,22.90
2006,09,01,15,21,22.90
2006,09,01,15,22,22.90
2006,09,01,15,23,23.00
2006,09,01,15,24,22.90
2006,09,01,15,25,22.90
2006,09,01,15,26,22.90
2006,09,01,15,27,22.90
2006,09,01,15,28,22.90
2006,09,01,15,29,22.90
2006,09,01,15,30,23.00
2006,09,01,15,31,23.10
2006,09,01,15,32,23.10
2006,09,01,15,33,23.10
2006,09,01,15,34,23.00
2006,09,01,15,35,22.90
2006,09,01,15,36,22.90
2006,09,01,15,37,22.90
2006,09,01,15,38,22.90
2006,09,01,15,39,22.90
2006,09,01,15,40,22.90
2006,09,01,15,41,22.90
2006,09,01,15,42,22.90
2006,09,01,15,43,23.00
2006,09,01,15,44,23.10
2006,09,01,15,45,23.10
2006,09,01,15,46,23.10
2006,09,01,15,47,23.00
2006,09,01,15,48,22.90
2006,09,01,15,49,22.90
2006,09,01,15,50,23.00
2006,09,01,15,51,23.00
2006,09,01,15,52,23.10
2006,09,01,15,53,23.10
2006,09,01,15,54,23.20
2006,09,01,15,55,23.20
2006,09,01,15,56,23.20
2006,09,01,15,57,23.20
2006,09,01,15,58,23.20
2006,09,01,15,59,23.20
2006,09,01,16,00,23.20
2006,09,01,16,01,23.30
2006,09,01,16,02,23.30
2006,09,01,16,03,23.30
2006,09,01,16,04,23.30
2006,09,01,16,05,23.30
2006,09,01,16,06,23.30
2006,09,01,16,07,23.30
2006,09,01,16,08,23.30
2006,09,01,16,09,23.40
2006,09,01,16,10,23.50
2006,09,01,16,11,23.60
2006,09,01,16,12,23.70
2006,09,01,16,13,23.70
2006,09,01,16,14,23.70
2006,09,01,16,15,23.70
2006,09,01,16,16,23.60
2006,09,01,16,17,23.60
2006,09,01,16,18,23.60
2006,09,01,16,19,23.60
2006,09,01,16,20,23.60
2006,09,01,16,21,23.50
2006,09,01,16,22,23.40
2006,09,01,16,23,23.50
2006,09,01,16,24,23.60
2006,09,01,16,25,23.70
2006,09,01,16,26,23.70
2006,09,01,16,27,23.70
2006,09,01,16,28,23.70
2006,09,01,16,29,23.70
2006,09,01,16,30,23.70
2006,09,01,16,31,23.70
2006,09,01,16,32,23.70
2006,09,01,16,33,23.80
2006,09,01,16,34,23.80
2006,09,01,16,35,23.90
2006,09,01,16,36,23.80
2006,09,01,16,37,23.80
2006,09,01,16,38,23.90
2006,09,01,16,39,23.90
2006,09,01,16,40,23.90
2006,09,01,16,41,23.90
2006,09,01,16,42,23.90
2006,09,01,16,43,23.90
2006,09,01,16,44,23.90
2006,09,01,16,45,23.90
2006,09,01,16,46,23.90
2006,09,01,16,47,23.90
2006,09,01,16,48,23.90
2006,09,01,16,49,24.00
2006,09,01,16,50,24.10
2006,09,01,16,51,24.10
2006,09,01,16,52,24.10
2006,09,01,16,53,24.10
2006,09,01,16,54,24.10
2006,09,01,16,55,24.10
2006,09,01,16,56,24.10
2006,09,01,16,57,24.10
2006,09,01,16,58,24.10
2006,09,01,16,59,24.10
2006,09,01,17,00,24.10
2006,09,01,17,01,24.10
2006,09,01,17,02,24.10
2006,09,01,17,03,24.10
2006,09,01,17,04,24.10
2006,09,01,17,05,24.10
2006,09,01,17,06,24.10
2006,09,01,17,07,24.10
2006,09,01,17,08,24.10
2006,09,01,17,09,24.20
2006,09,01,17,10,24.20
2006,09,01,17,11,24.10
2006,09,01,17,12,24.10
2006,09,01,17,13,24.10
2006,09,01,17,14,24.10
2006,09,01,17,15,24.10
2006,09,01,17,16,24.10
2006,09,01,17,17,24.10
2006,09,01,17,18,24.10
2006,09,01,17,19,24.10
2006,09,01,17,20,24.10
2006,09,01,17,21,24.10
2006,09,01,17,22,24.10
2006,09,01,17,23,24.10
2006,09,01,17,24,24.20
2006,09,01,17,25,24.20
2006,09,01,17,26,24.20
2006,09,01,17,27,24.30
2006,09,01,17,28,24.30